Stündliche Wetter Abanto

Heute, 6 März, Samstag

Zeit Temperatur Niederschläge Wind Luftdruck Luftfeuchtigkeit
00:00 +6°C° 0 mm 1 m/S 682 mmHg 87%
01:00 +6°C° 0 mm 1 m/S 681 mmHg 88%
02:00 +5°C° 0 mm 1 m/S 681 mmHg 89%
03:00 +5°C° 0 mm 1 m/S 681 mmHg 90%
04:00 +4°C° 0 mm 1 m/S 681 mmHg 90%
05:00 +4°C° 0 mm 1 m/S 682 mmHg 91%
06:00 +4°C° 0 mm 1 m/S 682 mmHg 91%
07:00 +5°C° 0 mm 1 m/S 682 mmHg 84%
08:00 +6°C° 0 mm 1 m/S 683 mmHg 77%
09:00 +6°C° 0 mm 2 m/S 683 mmHg 70%
10:00 +8°C° 0 mm 2 m/S 683 mmHg 65%
11:00 +9°C° 0 mm 2 m/S 683 mmHg 60%
12:00 +10°C° 0 mm 3 m/S 683 mmHg 55%
13:00 +11°C° 0 mm 3 m/S 683 mmHg 53%
14:00 +11°C° 0 mm 3 m/S 683 mmHg 51%
15:00 +12°C° 0 mm 3 m/S 682 mmHg 49%
16:00 +11°C° 0 mm 3 m/S 682 mmHg 54%
17:00 +10°C° 0 mm 3 m/S 682 mmHg 59%
18:00 +9°C° 0 mm 3 m/S 682 mmHg 64%
19:00 +8°C° 0 mm 3 m/S 682 mmHg 68%
20:00 +7°C° 0 mm 2 m/S 683 mmHg 72%
21:00 +6°C° 0 mm 2 m/S 683 mmHg 77%
22:00 +6°C° 0 mm 2 m/S 683 mmHg 78%
23:00 +7°C° 0 mm 1 m/S 683 mmHg 80%

Morgen, 7 März, Sonntag

Zeit Temperatur Niederschläge Wind Luftdruck Luftfeuchtigkeit
00:00 +6°C° 0 mm 1 m/S 683 mmHg 81%
01:00 +6°C° 0 mm 1 m/S 682 mmHg 83%
02:00 +6°C° 0 mm 1 m/S 682 mmHg 84%
03:00 +6°C° 0 mm 1 m/S 682 mmHg 85%
04:00 +5°C° 0 mm 1 m/S 682 mmHg 88%
05:00 +5°C° 0 mm 1 m/S 681 mmHg 90%
06:00 +4°C° 0 mm 1 m/S 681 mmHg 92%
07:00 +5°C° 0 mm 1 m/S 681 mmHg 88%
08:00 +6°C° 0 mm 1 m/S 682 mmHg 83%
09:00 +7°C° 0 mm 1 m/S 682 mmHg 79%
10:00 +8°C° 0 mm 1 m/S 682 mmHg 73%
11:00 +9°C° 0 mm 1 m/S 682 mmHg 66%
12:00 +10°C° 0 mm 1 m/S 682 mmHg 60%
13:00 +10°C° 0 mm 2 m/S 681 mmHg 57%
14:00 +12°C° 0 mm 2 m/S 681 mmHg 55%
15:00 +12°C° 0 mm 2 m/S 680 mmHg 53%
16:00 +10°C° 0.1 mm 3 m/S 680 mmHg 59%
17:00 +9°C° 0.1 mm 3 m/S 680 mmHg 65%
18:00 +7°C° 0.1 mm 4 m/S 679 mmHg 71%
19:00 +8°C° 0.1 mm 3 m/S 679 mmHg 75%
20:00 +7°C° 0.1 mm 2 m/S 680 mmHg 78%
21:00 +8°C° 0.1 mm 1 m/S 680 mmHg 82%
22:00 +7°C° 0.7 mm 1 m/S 680 mmHg 83%
23:00 +7°C° 0.7 mm 1 m/S 680 mmHg 85%

übermorgen, 8 März, Montag

Zeit Temperatur Niederschläge Wind Luftdruck Luftfeuchtigkeit
00:00 +7°C° 0.7 mm 1 m/S 680 mmHg 86%
01:00 +7°C° 0.8 mm 1 m/S 679 mmHg 88%
02:00 +7°C° 0.8 mm 1 m/S 679 mmHg 90%
03:00 +6°C° 0.8 mm 1 m/S 679 mmHg 91%
04:00 +5°C° 0.5 mm 2 m/S 679 mmHg 92%
05:00 +5°C° 0.5 mm 2 m/S 679 mmHg 92%
06:00 +5°C° 0.5 mm 2 m/S 679 mmHg 92%
07:00 +5°C° 0.1 mm 2 m/S 679 mmHg 91%
08:00 +5°C° 0.1 mm 2 m/S 679 mmHg 89%
09:00 +5°C° 0.1 mm 2 m/S 679 mmHg 88%
10:00 +5°C° 0.1 mm 3 m/S 679 mmHg 85%
11:00 +5°C° 0.1 mm 3 m/S 679 mmHg 82%
12:00 +5°C° 0.1 mm 3 m/S 679 mmHg 79%
13:00 +6°C° 0 mm 4 m/S 679 mmHg 76%
14:00 +6°C° 0 mm 4 m/S 679 mmHg 73%
15:00 +6°C° 0 mm 4 m/S 678 mmHg 70%
16:00 +6°C° 0 mm 4 m/S 678 mmHg 71%
17:00 +6°C° 0 mm 4 m/S 679 mmHg 72%
18:00 +5°C° 0 mm 3 m/S 679 mmHg 73%
19:00 +5°C° 0 mm 3 m/S 679 mmHg 76%
20:00 +4°C° 0 mm 3 m/S 679 mmHg 79%
21:00 +4°C° 0 mm 2 m/S 680 mmHg 81%
22:00 +4°C° 0 mm 2 m/S 680 mmHg 83%
23:00 +4°C° 0 mm 1 m/S 680 mmHg 85%

9 März, Dienstag

Zeit Temperatur Niederschläge Wind Luftdruck Luftfeuchtigkeit
00:00 +4°C° 0 mm 1 m/S 680 mmHg 87%
01:00 +3°C° 0 mm 1 m/S 680 mmHg 86%
02:00 +3°C° 0 mm 1 m/S 680 mmHg 86%
03:00 +3°C° 0 mm 1 m/S 680 mmHg 86%
04:00 +3°C° 0 mm 1 m/S 680 mmHg 86%
05:00 +3°C° 0 mm 1 m/S 680 mmHg 86%
06:00 +2°C° 0 mm 1 m/S 680 mmHg 86%
07:00 +3°C° 0 mm 1 m/S 680 mmHg 80%
08:00 +5°C° 0 mm 1 m/S 681 mmHg 75%
09:00 +5°C° 0 mm 2 m/S 681 mmHg 69%
10:00 +6°C° 0 mm 2 m/S 681 mmHg 65%
11:00 +7°C° 0 mm 2 m/S 681 mmHg 60%
12:00 +7°C° 0 mm 3 m/S 682 mmHg 56%
13:00 +8°C° 0 mm 3 m/S 681 mmHg 55%
14:00 +7°C° 0 mm 4 m/S 681 mmHg 54%
15:00 +7°C° 0 mm 4 m/S 681 mmHg 52%
16:00 +6°C° 0 mm 4 m/S 681 mmHg 56%
17:00 +5°C° 0 mm 3 m/S 681 mmHg 59%
18:00 +4°C° 0 mm 3 m/S 681 mmHg 63%
19:00 +4°C° 0 mm 2 m/S 681 mmHg 68%
20:00 +4°C° 0 mm 1 m/S 681 mmHg 72%
21:00 +3°C° 0 mm 1 m/S 682 mmHg 77%
22:00 +3°C° 0 mm 1 m/S 682 mmHg 78%
23:00 +3°C° 0 mm 1 m/S 682 mmHg 79%

10 März, Mittwoch

Zeit Temperatur Niederschläge Wind Luftdruck Luftfeuchtigkeit
00:00 +2°C° 0 mm 1 m/S 682 mmHg 79%
01:00 +2°C° 0 mm 1 m/S 682 mmHg 79%
02:00 +2°C° 0 mm 1 m/S 682 mmHg 79%
03:00 +2°C° 0 mm 1 m/S 682 mmHg 79%
04:00 +1°C° 0 mm 2 m/S 682 mmHg 78%
05:00 +1°C° 0 mm 2 m/S 682 mmHg 77%
06:00 +1°C° 0 mm 2 m/S 682 mmHg 75%
07:00 +2°C° 0 mm 2 m/S 683 mmHg 67%
08:00 +3°C° 0 mm 3 m/S 683 mmHg 59%
09:00 +4°C° 0 mm 3 m/S 684 mmHg 51%
10:00 +7°C° 0 mm 3 m/S 684 mmHg 45%
11:00 +8°C° 0 mm 3 m/S 684 mmHg 39%
12:00 +10°C° 0 mm 3 m/S 684 mmHg 32%
13:00 +11°C° 0 mm 3 m/S 684 mmHg 31%
14:00 +11°C° 0 mm 3 m/S 684 mmHg 30%
15:00 +12°C° 0 mm 3 m/S 684 mmHg 28%
16:00 +12°C° 0 mm 2 m/S 684 mmHg 34%
17:00 +10°C° 0 mm 2 m/S 684 mmHg 40%
18:00 +9°C° 0 mm 1 m/S 684 mmHg 46%
19:00 +9°C° 0 mm 1 m/S 684 mmHg 49%
20:00 +8°C° 0 mm 1 m/S 684 mmHg 52%
21:00 +7°C° 0 mm 1 m/S 685 mmHg 55%
22:00 +7°C° 0 mm 1 m/S 685 mmHg 57%
23:00 +6°C° 0 mm 2 m/S 685 mmHg 58%

11 März, Donnerstag

Zeit Temperatur Niederschläge Wind Luftdruck Luftfeuchtigkeit
00:00 +6°C° 0 mm 2 m/S 685 mmHg 59%
01:00 +5°C° 0 mm 2 m/S 684 mmHg 60%
02:00 +4°C° 0 mm 3 m/S 684 mmHg 61%
03:00 +4°C° 0 mm 3 m/S 684 mmHg 62%
04:00 +4°C° 0 mm 3 m/S 684 mmHg 62%
05:00 +4°C° 0 mm 3 m/S 684 mmHg 62%
06:00 +4°C° 0 mm 3 m/S 684 mmHg 63%
07:00 +5°C° 0 mm 3 m/S 684 mmHg 60%
08:00 +8°C° 0 mm 3 m/S 685 mmHg 56%
09:00 +9°C° 0 mm 3 m/S 685 mmHg 53%
10:00 +11°C° 0 mm 4 m/S 685 mmHg 50%
11:00 +12°C° 0 mm 4 m/S 685 mmHg 47%
12:00 +13°C° 0 mm 5 m/S 685 mmHg 44%
13:00 +14°C° 0 mm 5 m/S 685 mmHg 43%
14:00 +15°C° 0 mm 5 m/S 685 mmHg 43%
15:00 +15°C° 0 mm 5 m/S 684 mmHg 42%
16:00 +14°C° 0 mm 5 m/S 684 mmHg 48%
17:00 +13°C° 0 mm 4 m/S 684 mmHg 53%
18:00 +12°C° 0 mm 4 m/S 683 mmHg 59%
19:00 +11°C° 0 mm 4 m/S 683 mmHg 62%
20:00 +10°C° 0 mm 4 m/S 683 mmHg 64%
21:00 +8°C° 0 mm 5 m/S 683 mmHg 67%
22:00 +8°C° 0 mm 4 m/S 683 mmHg 68%
23:00 +8°C° 0 mm 4 m/S 683 mmHg 68%
Mehr zeigen

Wir brauchen deine Erlaubnis

Meteoprog und unser Service Anbieter werden persönliche Daten aufbewahren, so wie Cookies, Geräte Bezeichnung oder ähnliche Technologien von deinem Gerät und Prozess, so wie Persönliche Daten Inhalte und Werbungen, genauso wie social Media und den Verkehr zu analysieren.

  • Aufbewahrung und/oder Zugang zu deiner Geräte Informationen.

    Cookies, Geräte Bezeichnung oder andere Informationen, können aufbewahrt oder Zugang zu deinem Gerät erhalten, für den Grund, der oben angegeben wird.

  • Personalisierte Werbung und Inhalte, Messungen, Einblick in das Publikum und Produkt Entwicklung.

    Werbungen und Inhalte können personalisiert werden, basierend auf ein Profil. Mehr Daten können besser personalisierte Werbungen und Inhalte hinzufügen. Werbung und Inhalte können gezeigt und gemessen werden. Einblicke über das Publikum, welche die Werbung gesehen haben und den Inhalt, können abgeleitet werden. So wie Daten können genutzt werden, um es zu verbessern oder die Benutzer Erfahrung zu verbessern das System und die Software.

Wenn du “Ich stimme zu” klickst, erlaubst du uns, die Cookies zu benutzen die Geräte Bezeichnung, den Web oder ähnliche Technologien zu benutzen. Deine Settings, können in deinem Gerät bei deinem Browser geändert werden.

Für den bestimmten Zweck, berechtigten Interessen beruhen darauf, mehr als auf den Inhalt. Du kannst mehr darüber in unseren Privaten und Cookie Politik lesen.